Time,TemperatureF,DewpointF,PressureIn,WindDirection,WindDirectionDegrees,WindSpeedMPH,WindSpeedGustMPH,Humidity,HourlyPrecipIn,Conditions,Clouds,dailyrainin,SoftwareType,DateUTC
2013-01-15 00:03:00,42.4,28.0,30.20,NNW,327,2.0,-999.0,56,-99.99,,,0.00,weatherlink.com 1.10,2013-01-15 05:03:00,
2013-01-15 00:18:00,42.2,27.0,30.20,NW,317,0.0,-999.0,56,-99.99,,,0.00,weatherlink.com 1.10,2013-01-15 05:18:00,
2013-01-15 00:33:00,42.0,28.0,30.20,WNW,293,2.0,-999.0,57,-99.99,,,0.00,weatherlink.com 1.10,2013-01-15 05:33:00,
2013-01-15 00:48:00,41.8,28.0,30.20,WNW,295,0.0,-999.0,58,-99.99,,,0.00,weatherlink.com 1.10,2013-01-15 05:48:00,
2013-01-15 01:03:00,41.6,28.0,30.20,WNW,290,0.0,-999.0,58,-99.99,,,0.00,weatherlink.com 1.10,2013-01-15 06:03:00,
2013-01-15 01:18:00,41.5,28.0,30.21,NNW,330,1.0,-999.0,58,-99.99,,,0.00,weatherlink.com 1.10,2013-01-15 06:18:00,
2013-01-15 01:33:00,41.3,27.0,30.21,NW,325,7.0,-999.0,58,-99.99,,,0.00,weatherlink.com 1.10,2013-01-15 06:33:00,
2013-01-15 01:48:00,41.1,27.0,30.21,WNW,298,0.0,-999.0,58,-99.99,,,0.00,weatherlink.com 1.10,2013-01-15 06:48:00,
2013-01-15 02:03:00,41.0,27.0,30.23,NNW,343,0.0,-999.0,58,-99.99,,,0.00,weatherlink.com 1.10,2013-01-15 07:03:00,
2013-01-15 02:18:00,40.8,27.0,30.22,NNW,345,3.0,-999.0,59,-99.99,,,0.00,weatherlink.com 1.10,2013-01-15 07:18:00,
2013-01-15 02:33:00,40.5,28.0,30.21,NW,317,0.0,-999.0,61,-99.99,,,0.00,weatherlink.com 1.10,2013-01-15 07:33:00,
2013-01-15 02:48:00,40.2,28.0,30.21,NW,319,0.0,-999.0,61,-99.99,,,0.00,weatherlink.com 1.10,2013-01-15 07:48:00,
2013-01-15 03:03:00,40.1,27.0,30.19,WNW,286,0.0,-999.0,61,-99.99,,,0.00,weatherlink.com 1.10,2013-01-15 08:03:00,
2013-01-15 03:18:00,40.0,27.0,30.18,NW,325,0.0,-999.0,60,-99.99,,,0.00,weatherlink.com 1.10,2013-01-15 08:18:00,
2013-01-15 03:33:00,39.9,27.0,30.18,NNW,336,1.0,-999.0,61,-99.99,,,0.00,weatherlink.com 1.10,2013-01-15 08:33:00,
2013-01-15 03:48:00,39.8,27.0,30.19,NNW,331,1.0,-999.0,61,-99.99,,,0.00,weatherlink.com 1.10,2013-01-15 08:48:00,
2013-01-15 04:03:00,39.7,27.0,30.19,West,278,1.0,-999.0,62,-99.99,,,0.00,weatherlink.com 1.10,2013-01-15 09:03:00,
2013-01-15 04:18:00,39.6,27.0,30.18,WNW,294,0.0,-999.0,62,-99.99,,,0.00,weatherlink.com 1.10,2013-01-15 09:18:00,
2013-01-15 04:33:00,39.5,27.0,30.16,NNW,335,0.0,-999.0,62,-99.99,,,0.00,weatherlink.com 1.10,2013-01-15 09:33:00,
2013-01-15 04:48:00,39.4,28.0,30.18,NW,311,4.0,-999.0,63,-99.99,,,0.00,weatherlink.com 1.10,2013-01-15 09:48:00,
2013-01-15 05:03:00,39.3,27.0,30.17,NW,320,2.0,-999.0,62,-99.99,,,0.00,weatherlink.com 1.10,2013-01-15 10:03:00,
2013-01-15 05:18:00,39.1,27.0,30.17,NNW,336,2.0,-999.0,62,-99.99,,,0.00,weatherlink.com 1.10,2013-01-15 10:18:00,
2013-01-15 05:33:00,38.8,27.0,30.18,NW,312,0.0,-999.0,63,-99.99,,,0.00,weatherlink.com 1.10,2013-01-15 10:33:00,
2013-01-15 05:48:00,38.4,27.0,30.18,NW,312,0.0,-999.0,64,-99.99,,,0.00,weatherlink.com 1.10,2013-01-15 10:48:00,
2013-01-15 06:03:00,38.0,27.0,30.18,NW,312,0.0,-999.0,65,-99.99,,,0.00,weatherlink.com 1.10,2013-01-15 11:03:00,
2013-01-15 06:18:00,37.6,27.0,30.18,North,349,0.0,-999.0,65,-99.99,,,0.00,weatherlink.com 1.10,2013-01-15 11:18:00,
2013-01-15 06:33:00,37.2,27.0,30.19,North,349,0.0,-999.0,67,-99.99,,,0.00,weatherlink.com 1.10,2013-01-15 11:33:00,
2013-01-15 06:48:00,37.0,27.0,30.21,NNW,348,0.0,-999.0,67,-99.99,,,0.00,weatherlink.com 1.10,2013-01-15 11:48:00,
2013-01-15 07:03:00,36.9,27.0,30.22,NW,325,2.0,-999.0,67,-99.99,,,0.00,weatherlink.com 1.10,2013-01-15 12:03:00,
2013-01-15 07:18:00,36.8,27.0,30.23,NNW,336,1.0,-999.0,67,-99.99,,,0.00,weatherlink.com 1.10,2013-01-15 12:18:00,
2013-01-15 07:33:00,36.8,27.0,30.23,NW,316,1.0,-999.0,68,-99.99,,,0.00,weatherlink.com 1.10,2013-01-15 12:33:00,
2013-01-15 07:48:00,36.6,27.0,30.23,NNW,329,2.0,-999.0,68,-99.99,,,0.00,weatherlink.com 1.10,2013-01-15 12:48:00,
2013-01-15 08:03:00,36.5,27.0,30.24,NNW,347,2.0,-999.0,68,-99.99,,,0.00,weatherlink.com 1.10,2013-01-15 13:03:00,
2013-01-15 08:18:00,36.6,27.0,30.25,NW,320,1.0,-999.0,68,-99.99,,,0.00,weatherlink.com 1.10,2013-01-15 13:18:00,
2013-01-15 08:33:00,36.7,27.0,30.24,North,5,0.0,-999.0,67,-99.99,,,0.00,weatherlink.com 1.10,2013-01-15 13:33:00,
2013-01-15 08:48:00,37.0,27.0,30.25,NW,322,0.0,-999.0,67,-99.99,,,0.00,weatherlink.com 1.10,2013-01-15 13:48:00,
2013-01-15 09:03:00,37.4,27.0,30.25,North,5,3.0,-999.0,66,-99.99,,,0.00,weatherlink.com 1.10,2013-01-15 14:03:00,
2013-01-15 09:18:00,37.8,27.0,30.25,North,355,1.0,-999.0,66,-99.99,,,0.00,weatherlink.com 1.10,2013-01-15 14:18:00,
2013-01-15 09:33:00,38.0,27.0,30.25,North,350,1.0,-999.0,64,-99.99,,,0.00,weatherlink.com 1.10,2013-01-15 14:33:00,
2013-01-15 09:48:00,38.6,27.0,30.25,NW,325,0.0,-999.0,63,-99.99,,,0.00,weatherlink.com 1.10,2013-01-15 14:48:00,
2013-01-15 10:03:00,39.3,27.0,30.25,NNW,346,3.0,-999.0,62,-99.99,,,0.00,weatherlink.com 1.10,2013-01-15 15:03:00,
2013-01-15 10:18:00,39.8,27.0,30.25,NW,325,5.0,-999.0,61,-99.99,,,0.00,weatherlink.com 1.10,2013-01-15 15:18:00,
2013-01-15 10:33:00,39.8,27.0,30.26,NW,321,4.0,-999.0,60,-99.99,,,0.00,weatherlink.com 1.10,2013-01-15 15:33:00,
2013-01-15 10:48:00,40.0,27.0,30.26,NNW,329,0.0,-999.0,59,-99.99,,,0.00,weatherlink.com 1.10,2013-01-15 15:48:00,
2013-01-15 11:03:00,40.2,27.0,30.23,NW,322,0.0,-999.0,60,-99.99,,,0.00,weatherlink.com 1.10,2013-01-15 16:03:00,
2013-01-15 11:18:00,40.4,26.0,30.22,NW,315,2.0,-999.0,58,-99.99,,,0.00,weatherlink.com 1.10,2013-01-15 16:18:00,
2013-01-15 11:33:00,40.3,26.0,30.21,NW,311,0.0,-999.0,58,-99.99,,,0.00,weatherlink.com 1.10,2013-01-15 16:33:00,
2013-01-15 11:48:00,40.4,26.0,30.21,WNW,284,2.0,-999.0,58,-99.99,,,0.00,weatherlink.com 1.10,2013-01-15 16:48:00,
2013-01-15 12:03:00,40.9,27.0,30.22,NNW,328,0.0,-999.0,58,-99.99,,,0.00,weatherlink.com 1.10,2013-01-15 17:03:00,
2013-01-15 12:18:00,41.3,27.0,30.21,NW,309,0.0,-999.0,57,-99.99,,,0.00,weatherlink.com 1.10,2013-01-15 17:18:00,
2013-01-15 12:33:00,41.7,27.0,30.21,NW,315,1.0,-999.0,57,-99.99,,,0.00,weatherlink.com 1.10,2013-01-15 17:33:00,
2013-01-15 12:48:00,41.7,27.0,30.20,WNW,301,0.0,-999.0,57,-99.99,,,0.00,weatherlink.com 1.10,2013-01-15 17:48:00,
2013-01-15 13:03:00,41.9,27.0,30.20,NW,308,0.0,-999.0,57,-99.99,,,0.00,weatherlink.com 1.10,2013-01-15 18:03:00,
2013-01-15 13:18:00,41.8,27.0,30.21,WNW,302,0.0,-999.0,57,-99.99,,,0.00,weatherlink.com 1.10,2013-01-15 18:18:00,
2013-01-15 13:33:00,41.7,27.0,30.21,NW,304,2.0,-999.0,57,-99.99,,,0.00,weatherlink.com 1.10,2013-01-15 18:33:00,
2013-01-15 13:48:00,41.5,28.0,30.21,NW,304,0.0,-999.0,58,-99.99,,,0.00,weatherlink.com 1.10,2013-01-15 18:48:00,
2013-01-15 14:03:00,41.5,28.0,30.21,NW,306,3.0,-999.0,58,-99.99,,,0.00,weatherlink.com 1.10,2013-01-15 19:03:00,
2013-01-15 14:18:00,41.7,28.0,30.21,NW,319,0.0,-999.0,58,-99.99,,,0.00,weatherlink.com 1.10,2013-01-15 19:18:00,
2013-01-15 14:33:00,41.9,27.0,30.20,NW,315,2.0,-999.0,57,-99.99,,,0.00,weatherlink.com 1.10,2013-01-15 19:33:00,
2013-01-15 14:48:00,41.5,28.0,30.20,NW,315,0.0,-999.0,58,-99.99,,,0.00,weatherlink.com 1.10,2013-01-15 19:48:00,
2013-01-15 15:03:00,41.5,28.0,30.20,NW,313,0.0,-999.0,58,-99.99,,,0.00,weatherlink.com 1.10,2013-01-15 20:03:00,
2013-01-15 15:18:00,41.6,27.0,30.20,NW,313,0.0,-999.0,57,-99.99,,,0.00,weatherlink.com 1.10,2013-01-15 20:18:00,
2013-01-15 15:33:00,41.8,27.0,30.20,NW,313,0.0,-999.0,57,-99.99,,,0.00,weatherlink.com 1.10,2013-01-15 20:33:00,
2013-01-15 15:48:00,41.6,27.0,30.18,NW,306,0.0,-999.0,57,-99.99,,,0.00,weatherlink.com 1.10,2013-01-15 20:48:00,
2013-01-15 16:04:00,41.5,28.0,30.19,NW,306,0.0,-999.0,58,-99.99,,,0.00,weatherlink.com 1.10,2013-01-15 21:04:00,
2013-01-15 16:19:00,41.3,27.0,30.19,NW,306,0.0,-999.0,58,-99.99,,,0.00,weatherlink.com 1.10,2013-01-15 21:19:00,
2013-01-15 16:34:00,41.0,27.0,30.19,NW,306,0.0,-999.0,59,-99.99,,,0.00,weatherlink.com 1.10,2013-01-15 21:34:00,
2013-01-15 16:49:00,40.5,27.0,30.20,NW,306,0.0,-999.0,59,-99.99,,,0.00,weatherlink.com 1.10,2013-01-15 21:49:00,
2013-01-15 17:04:00,40.1,27.0,30.21,NW,306,0.0,-999.0,61,-99.99,,,0.00,weatherlink.com 1.10,2013-01-15 22:04:00,
2013-01-15 17:19:00,39.6,27.0,30.21,NW,306,0.0,-999.0,62,-99.99,,,0.00,weatherlink.com 1.10,2013-01-15 22:19:00,
2013-01-15 17:34:00,39.2,27.0,30.21,NW,306,0.0,-999.0,63,-99.99,,,0.00,weatherlink.com 1.10,2013-01-15 22:34:00,
2013-01-15 17:49:00,38.7,27.0,30.21,NW,306,0.0,-999.0,64,-99.99,,,0.00,weatherlink.com 1.10,2013-01-15 22:49:00,
2013-01-15 18:04:00,38.2,27.0,30.21,NW,306,0.0,-999.0,64,-99.99,,,0.00,weatherlink.com 1.10,2013-01-15 23:04:00,
2013-01-15 18:19:00,37.9,27.0,30.21,NW,306,0.0,-999.0,66,-99.99,,,0.00,weatherlink.com 1.10,2013-01-15 23:19:00,
2013-01-15 18:34:00,37.5,27.0,30.21,NW,306,0.0,-999.0,67,-99.99,,,0.00,weatherlink.com 1.10,2013-01-15 23:34:00,
2013-01-15 18:49:00,37.0,27.0,30.22,NW,306,0.0,-999.0,67,-99.99,,,0.00,weatherlink.com 1.10,2013-01-15 23:49:00,
2013-01-15 19:04:00,36.6,27.0,30.22,NW,306,0.0,-999.0,68,-99.99,,,0.00,weatherlink.com 1.10,2013-01-16 00:04:00,
2013-01-15 19:19:00,36.3,27.0,30.23,NW,306,0.0,-999.0,69,-99.99,,,0.00,weatherlink.com 1.10,2013-01-16 00:19:00,
2013-01-15 19:34:00,36.1,26.0,30.22,NW,306,0.0,-999.0,67,-99.99,,,0.00,weatherlink.com 1.10,2013-01-16 00:34:00,
2013-01-15 19:49:00,36.1,26.0,30.22,NW,306,0.0,-999.0,66,-99.99,,,0.00,weatherlink.com 1.10,2013-01-16 00:49:00,
2013-01-15 20:04:00,36.2,26.0,30.22,NW,306,0.0,-999.0,66,-99.99,,,0.00,weatherlink.com 1.10,2013-01-16 01:04:00,
2013-01-15 20:19:00,36.2,25.0,30.21,NW,306,0.0,-999.0,65,-99.99,,,0.00,weatherlink.com 1.10,2013-01-16 01:19:00,
2013-01-15 20:34:00,36.1,25.0,30.21,NW,306,0.0,-999.0,65,-99.99,,,0.00,weatherlink.com 1.10,2013-01-16 01:34:00,
2013-01-15 20:49:00,36.1,25.0,30.21,NW,306,0.0,-999.0,65,-99.99,,,0.00,weatherlink.com 1.10,2013-01-16 01:49:00,
2013-01-15 21:04:00,36.0,26.0,30.20,NW,306,0.0,-999.0,66,-99.99,,,0.00,weatherlink.com 1.10,2013-01-16 02:04:00,
2013-01-15 21:19:00,35.9,25.0,30.20,NW,306,0.0,-999.0,66,-99.99,,,0.00,weatherlink.com 1.10,2013-01-16 02:19:00,
2013-01-15 21:34:00,35.7,25.0,30.21,NW,306,0.0,-999.0,66,-99.99,,,0.00,weatherlink.com 1.10,2013-01-16 02:34:00,
2013-01-15 21:49:00,35.6,25.0,30.20,NNW,348,0.0,-999.0,66,-99.99,,,0.00,weatherlink.com 1.10,2013-01-16 02:49:00,
2013-01-15 22:04:00,35.5,25.0,30.20,NNW,348,0.0,-999.0,65,-99.99,,,0.00,weatherlink.com 1.10,2013-01-16 03:04:00,
2013-01-15 22:19:00,35.4,25.0,30.19,NNW,348,0.0,-999.0,66,-99.99,,,0.00,weatherlink.com 1.10,2013-01-16 03:19:00,
2013-01-15 22:34:00,35.3,25.0,30.19,NNW,348,0.0,-999.0,66,-99.99,,,0.00,weatherlink.com 1.10,2013-01-16 03:34:00,
2013-01-15 22:49:00,35.1,25.0,30.19,NNW,348,0.0,-999.0,66,-99.99,,,0.00,weatherlink.com 1.10,2013-01-16 03:49:00,
2013-01-15 23:04:00,35.0,25.0,30.19,North,349,0.0,-999.0,67,-99.99,,,0.00,weatherlink.com 1.10,2013-01-16 04:04:00,
2013-01-15 23:19:00,34.8,25.0,30.20,North,349,0.0,-999.0,67,-99.99,,,0.00,weatherlink.com 1.10,2013-01-16 04:19:00,
2013-01-15 23:34:00,34.7,25.0,30.20,North,349,0.0,-999.0,68,-99.99,,,0.00,weatherlink.com 1.10,2013-01-16 04:34:00,
2013-01-15 23:49:00,34.6,25.0,30.19,North,349,0.0,-999.0,68,-99.99,,,0.00,weatherlink.com 1.10,2013-01-16 04:49:00,